Hoquiam, WA

12:39 AM PDT on March 30, 2017 (GMT -0700)
Bowerman

Weather History for KHQM - October, 2012

Change the Weather History Date:

Tuesday, October 30, 2012

  Actual Average Record
Temperature  
Mean Temperature 55 °F 49 °F  
Max Temperature 57 °F 55 °F 65 °F (1958)
Min Temperature 53 °F 43 °F 29 °F (1972)
Degree Days  
Heating Degree Days 10 16  
Month to date heating degree days 378  
Cooling Degree Days 0 0  
Month to date cooling degree days 0  
Year to date cooling degree days 23  
Growing Degree Days 5 (Base 50)    
Moisture  
Dew Point 55 °F    
Average Humidity 95    
Maximum Humidity 100    
Minimum Humidity 90    
Precipitation  
Precipitation 2.58 in 0.31 in 2.57 in (2012)
Month to date precipitation 6.22  
Year to date precipitation 46.11  
Sea Level Pressure  
Sea Level Pressure 29.79 in    
Wind  
Wind Speed 11 mph (SE)    
Max Wind Speed 24 mph    
Max Gust Speed 31 mph    
Visibility 4 miles    
Events Rain    
T = Trace of Precipitation, MM = Missing Value Source: NWS Daily Summary

Daily Weather History Graph

Daily Weather History Graph

Search for Another Location

Airport or City:

Trip Planner

Search our weather history database for the weather conditions in past years. The results will help you decide how hot, cold, wet, or windy it might be!

Date:

Astronomy

Oct. 30, 2012 Rise Set
Actual Time 7:56 AM PDT 6:01 PM PDT
Civil Twilight 7:24 AM PDT 6:33 PM PDT
Nautical Twilight 6:48 AM PDT 7:09 PM PDT
Astronomical Twilight 6:13 AM PDT 7:44 PM PDT
Moon 6:29 PM PDT 8:53 AM PDT
Length of Visible Light 11h 08m
Length of Day
10h 05m
Full, 99% of the Moon is Illuminated
Oct 30
Full
Nov 6
Last Quarter
Nov 13
New
Nov 20
First Quarter
Nov 28
Full

Hourly Weather History & Observations

Time (PDT) Temp. Dew Point Humidity Pressure Visibility Wind Dir Wind Speed Gust Speed Precip Events Conditions
12:53 AM 55.0 °F 53.1 °F 93% 29.94 in 8.0 mi ENE 5.8 mph - 0.07 in Rain Light Rain
1:53 AM 55.0 °F 54.0 °F 96% 29.92 in 9.0 mi ENE 8.1 mph - 0.04 in Rain Light Rain
2:20 AM 55.4 °F 53.6 °F 94% 29.90 in 4.0 mi ENE 8.1 mph - 0.02 in Rain Light Rain
2:33 AM 55.4 °F 53.6 °F 94% 29.89 in 4.0 mi NE 9.2 mph - 0.03 in Rain Light Rain
2:53 AM 55.0 °F 54.0 °F 96% 29.91 in 6.0 mi ENE 8.1 mph - 0.03 in Rain Light Rain
3:24 AM 55.4 °F 53.6 °F 94% 29.87 in 3.0 mi ENE 9.2 mph - 0.02 in Rain Light Rain
3:53 AM 53.6 °F 53.6 °F 100% 29.86 in 3.0 mi ENE 9.2 mph - N/A Rain Light Rain
4:17 AM 55.4 °F 53.6 °F 94% 29.86 in 2.0 mi ENE 5.8 mph - 0.01 in Rain Light Rain
4:46 AM 55.4 °F 53.6 °F 94% 29.85 in 1.5 mi ENE 4.6 mph - 0.02 in Rain Light Rain
4:53 AM 54.0 °F 54.0 °F 100% 29.87 in 1.2 mi East 4.6 mph - 0.03 in Rain Light Rain
5:10 AM 55.4 °F 53.6 °F 94% 29.85 in 2.0 mi East 5.8 mph - 0.03 in Rain Light Rain
5:33 AM 55.4 °F 55.4 °F 100% 29.85 in 5.0 mi South 10.4 mph - 0.03 in   Overcast
5:44 AM 55.4 °F 55.4 °F 100% 29.85 in 4.0 mi South 12.7 mph - 0.03 in   Overcast
5:53 AM 55.9 °F 55.0 °F 97% 29.86 in 10.0 mi South 17.3 mph 24.2 mph 0.04 in   Overcast
6:53 AM 55.9 °F 55.0 °F 97% 29.86 in 10.0 mi South 13.8 mph - N/A   Overcast
7:53 AM 55.9 °F 55.0 °F 97% 29.85 in 4.0 mi South 10.4 mph - N/A   Overcast
8:53 AM 55.9 °F 55.9 °F 100% 29.86 in 10.0 mi South 11.5 mph - 0.00 in Rain Light Rain
9:53 AM 55.9 °F 55.0 °F 97% 29.86 in 6.0 mi South 8.1 mph - 0.06 in Rain Light Rain
10:53 AM 57.0 °F 55.9 °F 96% 29.84 in 6.0 mi NE 3.5 mph - 0.09 in Rain Light Rain
11:53 AM 55.9 °F 55.0 °F 97% 29.83 in 2.5 mi East 4.6 mph - 0.09 in Rain Rain
12:04 PM 57.2 °F 55.4 °F 94% 29.82 in 2.5 mi East 3.5 mph - 0.04 in Rain Rain
12:13 PM 57.2 °F 55.4 °F 94% 29.82 in 1.8 mi East 4.6 mph - 0.10 in Rain Rain
12:21 PM 57.2 °F 55.4 °F 94% 29.81 in 2.0 mi NE 5.8 mph - 0.13 in Rain Rain
12:50 PM 57.2 °F 55.4 °F 94% 29.79 in 2.5 mi East 3.5 mph - 0.24 in Rain Rain
12:53 PM 57.0 °F 55.9 °F 96% 29.80 in 2.5 mi ESE 4.6 mph - 0.25 in Rain Rain
1:22 PM 55.4 °F 55.4 °F 100% 29.78 in 1.8 mi ESE 8.1 mph - 0.10 in Rain Rain
1:36 PM 55.4 °F 55.4 °F 100% 29.77 in 3.0 mi ENE 6.9 mph - 0.15 in Rain Light Rain
1:46 PM 55.4 °F 55.4 °F 100% 29.76 in 2.0 mi East 5.8 mph - 0.18 in Rain Rain
1:53 PM 57.0 °F 55.9 °F 96% 29.78 in 2.0 mi ENE 6.9 mph - 0.22 in Rain Rain
1:56 PM 57.2 °F 57.2 °F 100% 29.76 in 1.8 mi East 6.9 mph - 0.03 in Rain Rain
2:40 PM 57.2 °F 55.4 °F 94% 29.76 in 2.0 mi SE 9.2 mph - 0.26 in Rain Rain
2:53 PM 57.9 °F 55.9 °F 93% 29.77 in 4.0 mi SSE 13.8 mph 19.6 mph 0.29 in Rain Light Rain
3:35 PM 57.2 °F 55.4 °F 94% 29.76 in 7.0 mi SSE 17.3 mph 25.3 mph 0.06 in Rain Light Rain
3:53 PM 57.9 °F 55.9 °F 93% 29.77 in 5.0 mi SSE 19.6 mph 25.3 mph 0.08 in Rain Light Rain
4:05 PM 57.2 °F 55.4 °F 94% 29.76 in 9.0 mi SSE 21.9 mph 27.6 mph 0.01 in Rain Light Rain
4:27 PM 57.2 °F 55.4 °F 94% 29.76 in 4.0 mi South 24.2 mph 29.9 mph 0.04 in Rain Rain
4:48 PM 57.2 °F 55.4 °F 94% 29.75 in 4.0 mi SSE 19.6 mph - 0.09 in Rain Light Rain
4:49 PM 57.9 °F 55.9 °F 93% 29.76 in 4.0 mi SSE 19.6 mph - 0.09 in Rain Light Rain
5:03 PM 57.2 °F 55.4 °F 94% 29.74 in 1.8 mi SSE 20.7 mph 28.8 mph N/A Rain Rain
5:11 PM 57.2 °F 55.4 °F 94% 29.74 in 2.0 mi SSE 16.1 mph 26.5 mph 0.09 in Rain Light Rain
5:20 PM 57.2 °F 55.4 °F 94% 29.74 in 3.0 mi SSE 19.6 mph 25.3 mph 0.12 in Rain Rain
5:26 PM 57.2 °F 55.4 °F 94% 29.74 in 2.5 mi SSE 17.3 mph 26.5 mph 0.13 in Rain Light Rain
5:34 PM 57.2 °F 55.4 °F 94% 29.74 in 4.0 mi South 18.4 mph 27.6 mph N/A Rain Light Rain
5:53 PM 57.9 °F 55.0 °F 90% 29.75 in 10.0 mi SSE 20.7 mph 27.6 mph 0.15 in Rain Light Rain
6:28 PM 57.2 °F 55.4 °F 94% 29.74 in 2.5 mi South 19.6 mph 27.6 mph 0.18 in Rain Heavy Rain
6:38 PM 57.2 °F 55.4 °F 94% 29.73 in 1.5 mi SSE 19.6 mph - 0.31 in Rain Heavy Rain
6:50 PM 57.2 °F 55.4 °F 94% 29.73 in 3.0 mi SSE 15.0 mph - 0.38 in Rain Light Rain
6:53 PM 57.0 °F 55.9 °F 96% 29.75 in 3.0 mi SSE 17.3 mph 21.9 mph 0.40 in Rain Light Rain
7:00 PM 57.2 °F 55.4 °F 94% 29.73 in 3.0 mi SSE 17.3 mph - 0.04 in Rain Rain
7:07 PM 57.2 °F 55.4 °F 94% 29.73 in 3.0 mi SSE 18.4 mph - 0.07 in Rain Light Rain
7:14 PM 57.2 °F 55.4 °F 94% 29.74 in 2.0 mi SSE 17.3 mph 31.1 mph 0.14 in Rain Heavy Rain
7:17 PM 57.2 °F 55.4 °F 94% 29.74 in 1.8 mi SSE 18.4 mph 31.1 mph 0.17 in Rain Heavy Rain
7:21 PM 57.2 °F 55.4 °F 94% 29.74 in 2.0 mi SSE 16.1 mph 24.2 mph 0.20 in Rain Rain
7:32 PM 57.2 °F 55.4 °F 94% 29.73 in 3.0 mi SSE 18.4 mph - 0.25 in Rain Rain
7:39 PM 57.2 °F 55.4 °F 94% 29.73 in 3.0 mi SSE 19.6 mph 27.6 mph 0.27 in Rain Rain
7:53 PM 57.0 °F 55.0 °F 93% 29.75 in 4.0 mi SSE 19.6 mph 28.8 mph 0.32 in Rain Rain
8:13 PM 57.2 °F 55.4 °F 94% 29.74 in 7.0 mi SSE 16.1 mph - 0.03 in Rain Light Rain
8:27 PM 57.2 °F 55.4 °F 94% 29.73 in 5.0 mi SSE 16.1 mph - 0.05 in Rain Light Rain
8:36 PM 57.2 °F 55.4 °F 94% 29.74 in 5.0 mi SSE 17.3 mph - 0.07 in Rain Light Rain
8:46 PM 57.2 °F 55.4 °F 94% 29.74 in 6.0 mi South 19.6 mph - 0.08 in Rain Light Rain
8:53 PM 57.0 °F 55.0 °F 93% 29.75 in 6.0 mi South 15.0 mph - 0.09 in Rain Light Rain
9:53 PM 57.0 °F 55.0 °F 93% 29.75 in 9.0 mi South 15.0 mph - 0.06 in Rain Light Rain
10:53 PM 55.9 °F 55.0 °F 97% 29.76 in 8.0 mi SSE 12.7 mph - 0.10 in Rain Light Rain
11:53 PM 55.9 °F 55.0 °F 97% 29.76 in 6.0 mi South 8.1 mph - 0.08 in Rain Light Rain